IRIDIUM 22

Satellite information

Favourite Embed

Satellite Type and Status

PAYLOADIN ORBIT

Key statistics

Satellite IRIDIUM 22 at a glance.

Uptime

10182

Days in orbit

Revolutions

≈ 14.4

Per day

Orbit

LEO

Low Earth Orbit

Inclination

86.4

Latest

Satellite identification and parameters

Extended collection of information and parameters for IRIDIUM 22.

Object identification

Identified? True

Debris? False

Object name: IRIDIUM 22

International designator: 1997-043E

Object number (NORAD): 24907

Object ID (CCSDS): 24907

Country: UNITED STATES OF AMERICA (US)

Current information (Y/N): Y

RCS size: LARGE

Orbital parameters

Period: 100.281 minutes

Inclination: 86.3965 deg

SMA: 7149.987 km

Apoapsis: 773.396 km

Periapsis: 770.307 km

RAAN: 106.1601 deg

Eccentricy: 0.000216

Argument of periapsis: 83.5313 deg

Mean anomaly: 276.613 deg

Mean motion: 14.35968513 rev/day

Mean motion (dot): 0.00000258 rev/day2

B* drag term: 0.000082275 1/REarth

Two-line elements (TLE)

Creation date: July 6, 2025, 6:05 p.m.

Reference frame: TEME

Reference center: EARTH

Epoch: July 6, 2025, 6:41 a.m. UTC

TLE line 0: 0 IRIDIUM 22

TLE line 1: 1 24907U 97043E 25187.27895742 .00000258 00000-0 82275-4 0 9995

TLE line 2: 2 24907 86.3965 106.1601 0002160 83.5313 276.6130 14.35968513459512

Live tracking on map

Real-time ground track for satellite IRIDIUM 22.

In-orbit conjunctions

There are no conjunctions computed for IRIDIUM 22, at the moment. Check back to stay up to date, as we update our databases every day.

Go to all conjunctions

Associated space launch

Iridium provides global mobile telecommunications services using a constellation of 66 low earth orbit satellites in a 86.4° inclined orbit. Although 77 satellites were originally envisioned for the system and spawned the name based on the 77th element in the periodic table, the system has been scaled back. Motorola's Satellite Communications Group designed and manufactured the Iridium satellites with Lockheed Martin providing the LM-700A spacecraft buses.

IRIDIUM 22 was lifted into orbit during the mission ‘Delta II | Iridium 22 to 26’, on board a Delta II space rocket.

The launch took place on Aug. 21, 1997, 12:38 a.m. from Space Launch Complex 2W.

For more information about the launch, click the button.

Launch to space Delta II | Iridium 22 to 26
Delta II | Iridium 22 to 26

Agency: N/A

Status: Launch Successful

Launch date: Aug. 21, 1997, 12:38 a.m. UTC

Rocket: Delta II

Launch pad: Space Launch Complex 2W

Location: Vandenberg SFB, CA, USA

...

Latest news about this satellite

There are no fresh news available about this satellite. Check back as we update our databases every day.


Newsletter sign-up

Weekly statistics, charts and insights to help you stay on top of the space industry.